Weather History for HKMO - November, 2012

Change the Weather History Date:

Sunday, November 4, 2012

  Actual Average Record
Temperature  
Mean Temperature 78 °F -  
Max Temperature 84 °F 89 °F - ()
Min Temperature 72 °F 72 °F - ()
Cooling Degree Days 13    
Growing Degree Days 28 (Base 50)    
Moisture  
Dew Point 72 °F    
Average Humidity 77    
Maximum Humidity 89    
Minimum Humidity 57    
Precipitation  
Precipitation 0.55 in 0.13 in - ()
Sea Level Pressure  
Sea Level Pressure 29.93 in    
Wind  
Wind Speed 6 mph ()    
Max Wind Speed 12 mph    
Max Gust Speed -    
Visibility 7.8 miles    
Events Rain    
T = Trace of Precipitation, MM = Missing Value Source: Averaged Metar Reports

Daily Weather History Graph

Daily Weather History Graph

Search for Another Location

Airport or City:

Trip Planner

Search our weather history database for the weather conditions in past years. The results will help you decide how hot, cold, wet, or windy it might be!

Date:

Astronomy

Nov. 04, 2012 Rise Set
Actual Time 5:57 AM EAT 6:13 PM EAT
Civil Twilight 5:35 AM EAT 6:34 PM EAT
Nautical Twilight 5:10 AM EAT 6:59 PM EAT
Astronomical Twilight 4:45 AM EAT 7:24 PM EAT
Moon 10:44 PM EAT (11/4) 10:08 AM EAT (11/4)
Length of Visible Light 12h 59m
Length of Day
12h 15m
Waning Gibbous, 75% of the Moon is Illuminated
Nov 4
Waning Gibbous
Nov 7
Last Quarter
Nov 14
New
Nov 20
First Quarter
Nov 28
Full

Hourly Weather History & Observations

Time (EAT) Temp. Heat Index Dew Point Humidity Pressure Visibility Wind Dir Wind Speed Gust Speed Precip Events Conditions
12:00 AM 78.8 °F - 73.4 °F 83% 29.95 in 6.2 mi South 4.6 mph - N/A   Scattered Clouds
1:00 AM 78.8 °F - 73.4 °F 83% 29.92 in 6.2 mi SW 8.1 mph - N/A   Scattered Clouds
2:00 AM 77.0 °F - 73.4 °F 89% 29.92 in 6.2 mi South 11.5 mph - N/A   Scattered Clouds
3:00 AM 77 °F - 73 °F 85% 29.91 in 19 mi SW 4.6 mph - -   Scattered Clouds
3:30 AM 77.0 °F - 73.4 °F 89% 29.92 in 6.2 mi SW 6.9 mph - N/A   Partly Cloudy
7:00 AM 73.4 °F - 69.8 °F 88% 29.98 in 5.0 mi SSE 6.9 mph - N/A Rain Light Rain Showers
8:00 AM 78.8 °F - 73.4 °F 83% 29.98 in 6.2 mi SSE 4.6 mph - N/A   Mostly Cloudy
9:00 AM 79 °F - 73 °F 76% 29.98 in 16 mi South 4.6 mph - -   Partly Cloudy
9:00 AM 78.8 °F - 73.4 °F 83% 29.98 in 6.2 mi South 4.6 mph - N/A   Mostly Cloudy
10:00 AM 82.4 °F 87.2 °F 71.6 °F 70% 29.98 in 6.2 mi SW 10.4 mph - N/A   Mostly Cloudy
11:00 AM 82.4 °F 87.2 °F 71.6 °F 70% 29.98 in 6.2 mi SW 11.5 mph - N/A   Mostly Cloudy
1:00 PM 84.2 °F 89.6 °F 71.6 °F 66% 29.92 in 6.2 mi SSE 9.2 mph - N/A   Mostly Cloudy
2:00 PM 84.2 °F 88.4 °F 69.8 °F 62% 29.89 in 6.2 mi SSE 6.9 mph - N/A   Mostly Cloudy
3:00 PM 83 °F - 70 °F 57% 29.89 in 19 mi South 5.8 mph - -   Partly Cloudy
3:00 PM 82.4 °F 86.3 °F 69.8 °F 66% 29.89 in 6.2 mi South 5.8 mph - N/A   Mostly Cloudy
4:00 PM 82.4 °F 86.3 °F 69.8 °F 66% 29.89 in 6.2 mi SSE 5.8 mph - N/A   Mostly Cloudy
5:00 PM 82.4 °F 87.2 °F 71.6 °F 70% 29.89 in 6.2 mi SSE 8.1 mph - N/A   Scattered Clouds
6:00 PM 80.6 °F 84.6 °F 71.6 °F 74% 29.92 in 6.2 mi South 6.9 mph - N/A   Partly Cloudy
7:00 PM 78.8 °F - 73.4 °F 83% 29.92 in 6.2 mi South 4.6 mph - N/A   Partly Cloudy
8:00 PM 78.8 °F - 73.4 °F 83% 29.95 in 6.2 mi South 6.9 mph - N/A   Partly Cloudy
9:00 PM 77.0 °F - 73.4 °F 89% 29.95 in 6.2 mi SSW 3.5 mph - N/A   Scattered Clouds
10:00 PM 77.0 °F - 73.4 °F 89% 29.95 in 6.2 mi SW 4.6 mph - N/A   Scattered Clouds